Location: Arlington
(40.6323°N, 74.1651°W)
Time: 09:40:55
(UTC+00:00)

NOAA 11 - Pass Details

Date: 29 February 2020
Orbit: 834 x 849 km, 98.4° (Epoch: 08 April)

Event Time Altitude Azimuth Distance (km) Brightness Sun altitude
Rises 00:31:40 0° 198° (SSW) 3,376 7.5 -20.7°
Reaches altitude 10° 00:34:25 10° 211° (SSW) 2,444 6.9 -21.2°
Maximum altitude 00:38:50 25° 266° (W) 1,624 6.4 -22.1°
Drops below altitude 10° 00:43:16 10° 321° (NW) 2,452 7.2 -22.9°
Sets 00:46:03 0° 334° (NNW) 3,390 7.8 -23.4°
